Wetbulb
53.24 53.26 53.10 52.93 52.91 52.95 52.98 53.31 53.43 53.15 53.56 53.84 54.11 54.13 54.24 54.85 53.91 48.28 42.67 47.26 49.60 57.23 58.90 54.01 52.37 51.53 48.85 46.01 46.11 43.05 35.80 33.70 36.02 37.55 39.60 45.04 44.64 46.76 47.84 45.76 46.09 50.06 54.70 56.16 61.95
53.35 53.31 52.92 52.71 53.10 53.26 52.75 52.50 52.97 52.46 52.76 53.48 53.58 53.71 54.46 54.43 48.66 44.32 50.79 56.02 57.69 59.40 50.20 48.69 47.20 48.32 43.98 44.53 45.53 42.60 35.36 37.20 42.22 42.29 43.73 44.07 42.73 44.77 44.38 44.40 44.90 47.03 56.25 59.89 61.56
52.82 52.78 52.30 52.30 52.16 52.47 52.74 52.61 51.92 51.88 52.14 52.55 53.00 53.40 53.78 52.80 43.16 41.40 58.93 58.53 59.25 59.96 50.41 50.28 48.74 47.54 43.33 44.36 43.50 41.57 39.81 42.06 43.54 44.71 43.75 41.33 42.12 43.87 42.22 41.92 45.22 46.31 49.92 58.60 59.18
52.56 52.28 52.19 52.11 52.06 52.07 52.53 52.27 51.41 51.51 51.49 51.92 52.74 52.83 53.65 48.21 32.67 45.76 60.82 60.17 60.94 57.15 49.03 46.27 43.96 40.62 37.98 39.83 44.18 39.60 42.58 46.06 45.26 45.95 44.19 44.22 42.41 43.18 41.18 46.18 48.92 47.75 50.20 58.16 57.95
53.35 52.49 52.05 52.19 52.06 52.09 52.39 52.12 51.97 51.36 51.07 51.34 52.15 52.64 48.68 39.64 38.83 48.13 59.04 57.91 57.51 53.23 48.63 46.92 42.77 40.92 37.86 39.55 41.00 41.72 42.88 45.46 46.69 46.07 45.14 46.25 44.87 44.04 44.75 48.37 49.14 47.76 50.47 56.91 57.99
53.36 53.13 52.89 52.14 52.01 51.80 52.10 52.07 51.97 51.99 51.34 51.17 51.90 52.23 45.01 35.80 45.20 46.43 46.13 45.66 49.53 52.97 50.75 48.61 45.90 45.59 41.70 40.86 40.38 43.76 44.01 44.84 45.70 46.28 46.24 45.47 45.59 42.90 44.89 47.75 47.29 47.48 46.29 54.75 57.51
52.74 52.91 52.74 51.93 51.43 51.01 51.43 51.70 51.30 51.63 50.71 50.89 51.77 49.39 43.15 39.69 46.65 47.03 47.08 44.10 44.87 49.58 47.70 47.72 49.98 46.59 45.72 43.30 47.10 45.50 41.51 42.54 43.06 44.10 44.36 45.74 41.68 41.49 46.41 47.27 45.90 46.59 47.10 47.56 56.14
52.60 52.30 52.22 52.30 51.43 51.43 51.47 51.03 50.84 51.02 50.37 50.54 51.21 48.16 38.61 49.45 48.32 46.36 45.44 44.35 46.40 46.82 45.98 46.36 45.71 42.64 43.26 45.71 44.37 41.49 40.59 35.55 42.36 44.26 45.32 44.39 39.29 44.91 47.35 46.17 45.20 45.42 46.11 47.00 47.01
51.11 51.49 51.41 51.43 50.95 50.96 50.75 50.49 50.34 50.65 50.39 50.19 46.24 45.14 37.58 50.86 46.13 49.41 47.48 44.26 45.36 45.48 44.82 48.03 44.18 40.81 42.06 38.28 34.87 36.49 31.55 35.54 38.88 44.87 43.58 41.02 38.71 43.50 45.33 45.64 44.94 45.32 45.29 45.98 47.37
50.09 50.52 50.94 51.41 50.51 50.41 49.90 49.54 48.66 49.17 48.93 49.09 47.89 40.67 43.20 42.80 49.09 50.18 47.44 47.12 44.62 43.48 41.62 40.86 38.26 35.21 35.11 34.20 29.61 32.04 32.93 31.58 34.52 39.09 41.67 39.89 39.80 41.92 43.81 43.41 43.57 44.83 45.51 45.40 45.82
49.34 49.38 50.41 50.06 50.23 50.11 47.04 41.12 39.74 38.43 44.19 40.94 41.34 40.91 42.81 48.02 51.15 48.33 49.50 45.98 44.51 40.07 34.01 37.04 32.16 30.27 33.15 37.48 38.44 37.33 35.22 33.42 33.90 40.33 38.14 37.26 37.90 39.67 41.09 42.54 42.80 43.22 44.14 45.06 46.03
48.35 48.82 49.86 49.22 49.38 49.63 43.18 37.23 39.56 42.38 35.99 42.87 42.67 43.43 46.20 47.30 41.45 44.83 48.49 42.12 40.38 35.06 36.36 33.59 30.17 34.89 37.44 37.98 36.04 34.98 33.11 31.97 35.62 39.60 38.15 37.56 37.19 39.60 40.36 42.38 43.60 43.97 44.27 45.60 46.02
48.61 48.50 48.63 48.53 48.61 42.89 38.06 39.95 45.88 44.49 37.05 37.98 41.70 41.05 41.79 44.18 40.17 40.63 44.80 41.08 37.64 36.97 34.85 32.01 34.48 38.20 36.37 34.17 33.18 32.29 31.50 31.01 32.96 34.30 35.23 34.66 34.75 37.03 41.28 42.84 45.01 45.78 46.15 47.49 46.98
47.63 47.54 47.98 47.21 42.24 37.67 37.48 44.54 44.86 44.91 29.27 31.14 35.39 39.07 42.09 42.64 36.86 43.80 44.31 40.91 36.71 34.12 35.41 34.99 38.33 36.66 34.70 33.43 33.95 29.41 35.80 35.20 33.28 29.95 25.09 34.43 26.22 34.43 37.88 41.18 43.31 45.47 46.34 47.16 47.03
46.91 46.92 47.72 46.45 37.80 36.40 40.71 44.04 44.43 40.81 14.09 33.73 37.22 44.87 42.81 38.81 40.02 39.84 43.91 39.46 33.53 34.65 35.87 34.23 36.04 34.99 33.16 34.57 35.71 32.30 37.25 35.05 34.14 30.00 28.21 30.28 29.17 31.99 39.22 37.95 41.10 43.71 45.35 46.87 47.78
47.18 47.13 47.04 44.36 37.52 39.75 42.56 43.82 42.83 25.11 15.94 32.50 39.04 37.05 36.27 38.06 39.08 39.58 38.87 40.61 38.79 34.10 34.42 34.10 37.07 35.69 37.01 39.12 39.60 39.88 35.75 35.25 33.06 30.13 24.56 30.25 30.97 31.83 33.96 38.10 41.15 44.55 46.68 49.54 47.57
46.82 47.01 45.27 43.80 34.52 39.62 42.74 40.78 26.80 19.17 32.51 30.49 31.47 35.89 35.44 35.36 36.44 37.52 35.59 34.11 30.25 25.92 25.44 30.41 33.08 35.25 38.05 32.93 36.10 35.50 31.50 25.38 24.08 25.67 24.49 34.98 31.82 34.51 39.06 43.00 43.31 45.18 47.69 49.56 49.32
46.47 46.86 43.15 43.00 40.12 39.71 41.19 32.00 18.71 27.64 28.36 34.32 33.12 35.61 33.40 35.78 35.98 36.16 34.71 30.87 34.66 31.45 27.04 24.50 24.72 32.56 36.46 35.04 31.80 32.28 32.03 25.75 21.94 22.59 26.30 34.10 28.98 33.13 42.40 45.00 47.21 48.06 48.91 49.56 50.01
45.75 38.02 37.49 39.23 41.30 39.36 35.64 20.71 24.40 27.82 30.99 29.86 32.38 31.11 31.42 33.17 33.90 35.30 33.01 32.82 34.68 33.96 28.19 26.12 26.67 35.32 36.43 37.25 36.99 32.77 30.55 35.73 29.70 29.04 26.49 29.74 34.09 38.33 42.14 44.27 45.43 46.09 47.08 47.00 48.68
37.24 36.47 34.86 39.30 40.77 37.28 29.70 26.06 27.98 32.28 31.98 32.82 27.57 31.18 26.80 29.32 30.94 31.55 33.12 37.98 36.01 38.96 37.92 32.48 27.04 37.07 39.38 37.02 36.81 35.92 37.83 28.96 29.35 23.38 22.47 26.41 27.96 29.95 38.81 42.24 43.92 44.48 44.84 47.05 49.31
35.40 30.29 37.49 38.88 39.97 30.37 17.78 23.06 28.71 33.72 33.33 30.63 28.83 28.32 29.45 30.63 32.59 30.79 33.80 36.60 37.30 37.17 38.96 34.85 33.18 32.13 38.28 32.99 30.84 32.38 31.68 34.00 33.33 29.41 25.90 23.13 25.84 39.86 40.52 42.26 44.16 45.50 46.23 47.70 49.12
33.35 21.19 37.11 40.07 25.84 26.69 17.78 28.78 33.64 31.77 33.85 32.37 33.25 32.14 32.11 31.66 29.77 30.92 33.46 36.05 39.06 39.29 34.86 36.25 33.95 27.43 31.47 39.07 40.24 34.29 32.83 34.09 27.62 26.71 28.43 27.14 28.46 43.54 41.34 45.47 46.33 46.19 47.35 48.14 50.32
32.31 30.57 36.13 38.53 25.66 24.93 29.02 30.39 31.66 30.52 31.43 31.47 30.95 33.83 34.91 31.04 26.54 32.48 32.95 38.10 38.73 37.21 35.69 35.98 31.53 26.65 28.56 34.46 37.01 35.41 36.23 34.76 34.95 30.89 27.15 24.76 28.28 42.23 43.59 44.86 46.94 45.96 47.13 47.86 49.88
31.84 24.15 27.66 31.93 34.29 29.97 27.85 26.83 26.74 33.78 32.92 32.95 32.05 32.77 30.60 30.51 32.71 29.66 32.21 36.54 38.64 38.69 40.57 39.14 32.94 29.37 25.74 27.28 34.32 30.28 34.61 34.81 32.57 27.97 27.42 29.14 32.70 39.40 42.18 42.78 45.89 47.38 46.92 48.49 49.54
33.27 22.86 27.09 24.36 29.24 30.22 30.58 29.12 27.22 27.12 33.32 34.89 30.57 30.53 29.27 26.68 30.11 28.97 33.93 35.74 37.79 39.51 39.87 38.41 29.39 32.56 34.16 34.64 33.85 33.20 33.33 34.32 31.43 32.32 28.18 32.67 34.32 39.84 42.27 43.58 45.30 47.60 49.25 49.22 48.14
25.49 23.45 28.08 26.80 29.27 28.36 29.44 28.55 28.15 30.71 30.43 29.96 29.75 32.01 32.43 29.63 30.87 27.98 32.73 33.26 32.79 38.04 35.96 38.91 31.23 32.96 30.30 32.54 32.18 30.77 33.81 33.81 33.74 35.08 34.56 34.16 34.79 42.73 44.92 45.94 46.26 47.61 48.91 47.95 49.41
35.18 31.88 29.28 27.18 26.76 25.59 27.88 29.51 29.74 30.72 31.18 33.97 32.93 32.19 30.73 32.70 35.45 36.65 37.66 37.53 37.25 34.27 33.55 33.50 31.94 27.99 25.65 30.53 29.58 26.89 31.55 33.32 36.60 37.63 37.91 33.84 38.25 42.40 42.45 44.70 45.78 46.69 47.05 46.94 46.67
MSLP
1020.13 1019.98 1019.66 1019.39 1019.31 1018.90 1018.59 1018.35 1018.04 1017.73 1017.22 1016.68 1016.38 1015.81 1015.12 1014.36 1013.43 1012.58 1011.60 1009.02 1009.19 1008.74 1008.85 1009.51 1009.77 1009.78 1010.00 1010.38 1010.35 1010.85 1011.91 1011.63 1010.59 1009.83 1008.13 1007.01 1006.45 1005.49 1005.20 1005.11 1004.63 1004.45 1004.55 1004.42 1004.91
1020.20 1019.98 1019.54 1019.30 1019.06 1018.97 1018.55 1018.01 1017.83 1017.59 1017.16 1016.73 1016.14 1015.68 1015.04 1014.22 1013.30 1011.28 1008.16 1007.98 1008.34 1008.71 1008.85 1008.92 1009.57 1009.90 1010.20 1010.10 1010.14 1010.48 1010.82 1010.10 1008.90 1008.37 1007.55 1007.26 1007.02 1006.28 1005.95 1005.34 1004.84 1004.69 1004.74 1005.08 1005.27
1020.21 1019.98 1019.70 1019.33 1018.96 1018.67 1018.47 1018.01 1017.49 1017.22 1016.98 1016.65 1016.19 1015.55 1014.92 1014.32 1013.19 1009.04 1007.53 1007.41 1008.05 1008.76 1008.72 1008.56 1008.90 1009.52 1009.94 1009.92 1009.73 1009.38 1008.66 1008.52 1008.01 1007.53 1007.32 1006.94 1006.76 1006.64 1006.15 1005.82 1005.18 1005.09 1004.95 1005.68 1006.18
1019.89 1019.83 1019.63 1019.20 1018.91 1018.51 1018.34 1017.92 1017.52 1017.00 1016.70 1016.52 1016.19 1015.69 1015.04 1014.49 1012.21 1008.16 1007.68 1007.65 1007.96 1008.46 1008.87 1008.81 1008.96 1009.23 1009.56 1009.43 1008.88 1008.79 1008.02 1007.77 1007.13 1007.13 1007.12 1006.54 1006.09 1005.94 1006.02 1005.19 1004.64 1004.64 1004.78 1005.34 1005.87
1019.69 1019.58 1019.42 1019.15 1018.80 1018.46 1018.28 1017.79 1017.35 1017.15 1016.59 1016.41 1016.21 1015.77 1015.29 1014.32 1011.10 1008.19 1007.87 1007.84 1008.12 1008.39 1008.59 1008.89 1009.02 1009.12 1008.84 1008.52 1008.43 1008.04 1007.62 1007.31 1006.95 1006.73 1006.52 1006.16 1005.64 1005.67 1004.92 1004.33 1004.08 1004.13 1004.56 1004.75 1005.05
1019.55 1019.34 1019.09 1018.88 1018.53 1018.20 1018.15 1017.57 1016.92 1016.67 1016.38 1016.14 1015.93 1015.79 1015.57 1013.73 1009.03 1008.44 1008.45 1008.10 1008.09 1008.41 1008.22 1008.39 1008.22 1008.10 1008.28 1007.91 1007.72 1006.95 1006.89 1006.69 1006.61 1006.28 1006.03 1005.85 1005.15 1005.15 1004.25 1003.85 1003.83 1003.87 1004.15 1004.27 1004.25
1019.53 1019.32 1018.85 1018.46 1018.15 1017.93 1017.79 1017.19 1016.47 1016.24 1015.99 1015.79 1015.78 1015.64 1014.39 1010.92 1008.62 1008.72 1008.80 1008.26 1007.85 1007.95 1007.97 1007.65 1007.57 1008.09 1007.87 1007.65 1006.83 1006.67 1006.63 1006.37 1006.04 1005.86 1005.40 1005.48 1004.35 1004.09 1003.85 1003.47 1003.50 1003.40 1003.43 1003.65 1003.71
1019.40 1018.99 1018.62 1018.20 1017.84 1017.60 1017.18 1016.88 1015.96 1015.47 1015.29 1015.13 1015.27 1015.30 1012.23 1009.01 1008.74 1008.46 1008.36 1007.66 1007.29 1007.48 1007.58 1007.17 1007.27 1007.74 1007.84 1007.57 1006.98 1006.78 1006.63 1006.41 1005.44 1005.24 1004.99 1005.33 1002.56 1003.47 1003.35 1003.42 1003.33 1003.28 1003.15 1002.94 1002.89
1019.17 1018.78 1018.38 1017.90 1017.66 1017.19 1016.60 1016.10 1015.07 1014.25 1013.92 1014.36 1014.88 1014.75 1011.09 1008.63 1008.11 1006.47 1007.00 1006.81 1006.50 1006.80 1006.96 1006.76 1007.05 1007.46 1007.57 1007.92 1007.92 1007.05 1006.84 1006.48 1005.97 1005.03 1004.95 1004.85 1003.55 1003.52 1003.28 1003.46 1003.52 1003.49 1003.21 1002.91 1002.47
1019.03 1018.54 1018.11 1017.59 1017.39 1017.00 1016.37 1015.51 1013.56 1013.25 1013.02 1013.70 1013.79 1014.26 1009.94 1007.90 1006.29 1005.76 1006.03 1006.29 1005.97 1006.34 1006.99 1006.98 1007.20 1007.42 1007.89 1008.04 1007.12 1007.63 1007.27 1006.80 1006.17 1005.45 1005.01 1004.74 1003.78 1003.93 1003.57 1003.56 1003.45 1003.35 1002.97 1002.67 1002.21
1018.62 1018.20 1017.97 1017.53 1017.09 1016.80 1016.50 1015.80 1013.72 1013.65 1013.04 1011.97 1011.16 1009.89 1008.20 1007.14 1006.07 1005.59 1005.75 1005.96 1005.98 1006.13 1006.86 1006.91 1007.36 1007.06 1007.89 1007.72 1007.62 1007.52 1007.29 1006.96 1006.57 1005.90 1005.62 1004.88 1004.08 1003.88 1003.70 1003.26 1003.18 1003.14 1002.97 1002.25 1001.48
1018.31 1017.87 1017.60 1017.26 1016.85 1016.59 1016.75 1016.26 1014.83 1015.03 1012.78 1010.89 1010.03 1009.21 1007.83 1008.09 1007.86 1005.79 1005.84 1005.98 1006.14 1006.33 1006.67 1007.23 1006.43 1007.12 1007.22 1007.54 1007.65 1007.54 1007.35 1006.99 1006.81 1006.39 1006.03 1005.21 1003.39 1003.70 1003.50 1003.09 1002.76 1002.48 1002.20 1001.88 1001.47
1018.30 1017.97 1017.47 1017.25 1016.80 1016.50 1016.42 1015.40 1014.62 1014.25 1013.12 1009.50 1008.23 1007.31 1006.75 1007.23 1006.88 1005.46 1005.93 1005.81 1006.00 1006.32 1006.41 1006.45 1006.15 1005.79 1006.62 1006.95 1007.41 1007.27 1007.19 1007.09 1006.89 1006.53 1006.04 1005.52 1003.27 1003.43 1002.88 1002.46 1002.02 1001.63 1001.33 1000.97 1000.88
1018.12 1017.73 1017.51 1017.23 1017.44 1016.47 1015.71 1014.74 1014.47 1014.28 1013.34 1008.99 1007.16 1005.68 1005.59 1005.88 1005.82 1004.42 1004.71 1005.31 1005.77 1006.02 1006.44 1006.23 1005.80 1005.84 1006.30 1006.39 1006.86 1006.91 1006.82 1006.87 1007.00 1007.15 1006.79 1005.78 1003.47 1003.16 1002.86 1002.25 1001.76 1001.04 1000.47 1000.24 1000.22
1017.97 1017.23 1017.03 1017.10 1017.06 1016.42 1015.27 1014.37 1014.05 1014.09 1012.12 1006.67 1005.59 1004.95 1004.94 1005.37 1004.23 1004.01 1004.35 1004.90 1005.02 1005.53 1005.91 1005.38 1005.11 1005.42 1005.48 1005.44 1005.99 1006.13 1006.12 1006.63 1006.67 1006.99 1007.02 1006.41 1006.35 1002.66 1002.25 1002.16 1001.72 1000.59 1000.18 999.88 999.43
1017.72 1017.08 1016.72 1016.83 1017.05 1016.02 1015.28 1014.72 1014.32 1014.08 1010.09 1006.39 1005.33 1005.49 1005.58 1005.00 1004.18 1004.28 1004.33 1004.67 1004.92 1005.56 1005.50 1005.33 1004.87 1005.14 1004.93 1005.06 1005.35 1005.66 1005.91 1006.21 1006.58 1007.23 1007.13 1006.23 1006.10 1001.54 1002.18 1001.69 1001.06 1000.46 1000.08 999.39 998.82
1017.60 1016.94 1016.57 1016.31 1016.31 1015.76 1015.51 1015.02 1014.43 1012.87 1008.88 1007.92 1006.72 1005.98 1005.44 1004.93 1004.79 1004.46 1004.56 1004.74 1005.03 1005.81 1005.82 1005.39 1004.89 1004.79 1004.74 1005.14 1005.01 1005.51 1006.15 1006.75 1007.17 1007.39 1006.12 1005.41 1005.13 1002.26 1001.76 1001.17 1000.96 1000.71 999.94 998.93 998.31
1017.45 1016.82 1016.23 1015.89 1015.91 1015.94 1015.74 1014.83 1014.03 1011.52 1010.15 1008.88 1007.61 1006.46 1006.29 1005.93 1005.55 1004.94 1004.92 1005.08 1005.17 1005.35 1005.69 1005.67 1004.92 1004.09 1003.70 1003.79 1004.51 1004.83 1005.89 1006.33 1006.47 1006.69 1005.90 1005.34 1003.73 1002.01 1001.43 1001.40 1001.27 1000.70 999.75 999.35 998.64
1017.19 1016.92 1016.64 1015.62 1015.76 1016.19 1016.35 1015.49 1013.50 1012.36 1011.38 1010.08 1008.39 1007.76 1007.52 1007.32 1007.21 1006.26 1005.97 1005.84 1005.49 1005.49 1005.94 1005.72 1005.08 1003.33 1003.07 1002.98 1003.64 1004.10 1004.67 1005.14 1005.95 1006.04 1005.88 1004.77 1003.22 1001.92 1001.55 1001.70 1001.21 1000.77 999.98 999.90 998.95
1017.62 1017.37 1016.70 1015.67 1015.76 1016.38 1016.74 1015.06 1013.65 1012.67 1011.81 1010.80 1010.07 1009.64 1009.19 1008.73 1008.27 1007.89 1007.38 1007.42 1006.93 1006.51 1005.82 1005.44 1005.29 1003.84 1002.87 1002.78 1003.02 1003.20 1003.61 1004.94 1005.50 1005.57 1005.49 1004.39 1003.58 1002.68 1002.26 1002.20 1001.91 1001.05 1000.89 1000.23 998.68
1017.76 1017.52 1015.89 1015.44 1015.75 1016.56 1016.72 1015.32 1013.89 1012.76 1012.33 1011.78 1011.32 1010.94 1010.77 1010.35 1009.96 1009.38 1008.81 1008.52 1008.41 1007.50 1007.03 1006.33 1005.85 1004.83 1003.76 1003.28 1003.21 1003.42 1003.70 1004.22 1004.56 1004.98 1004.95 1004.46 1003.27 1002.45 1002.40 1002.06 1002.22 1001.77 1002.52 1001.14 998.77
1018.08 1017.86 1016.20 1016.05 1016.50 1016.73 1016.45 1015.19 1014.07 1012.96 1012.37 1012.04 1011.59 1011.52 1011.57 1011.54 1011.02 1010.62 1009.96 1009.59 1009.34 1008.83 1008.14 1007.41 1006.51 1005.48 1004.30 1003.70 1003.32 1003.03 1003.37 1004.01 1004.40 1004.90 1004.88 1004.48 1002.86 1001.98 1001.68 1001.49 1001.34 1002.13 1002.11 1000.63 999.56
1018.25 1017.93 1016.35 1016.17 1016.46 1016.52 1015.92 1014.96 1014.08 1013.28 1012.75 1012.44 1011.99 1011.69 1011.73 1012.04 1011.93 1011.31 1010.70 1010.12 1009.98 1009.49 1009.05 1008.95 1007.68 1006.44 1004.95 1004.37 1003.74 1004.49 1004.24 1004.30 1004.22 1004.61 1004.88 1004.34 1003.14 1001.93 1001.62 1001.22 1001.88 1002.58 1002.08 1001.06 999.26
1018.68 1018.47 1017.57 1017.01 1016.82 1016.54 1015.82 1014.93 1014.25 1013.36 1012.81 1012.59 1012.16 1011.81 1011.93 1011.98 1011.99 1011.54 1010.92 1010.39 1010.25 1009.63 1009.19 1009.29 1008.65 1008.28 1006.42 1004.79 1004.56 1005.10 1004.58 1004.72 1004.74 1005.11 1005.01 1004.10 1003.23 1002.42 1002.22 1001.72 1001.84 1001.29 1001.88 1001.68 1000.02
1018.64 1018.63 1018.00 1017.50 1016.88 1016.58 1016.00 1015.11 1014.31 1013.80 1012.80 1012.51 1012.16 1011.98 1011.99 1011.96 1011.53 1011.03 1010.77 1010.84 1010.06 1009.34 1009.09 1009.05 1008.37 1008.61 1006.76 1005.04 1005.16 1005.12 1004.82 1004.92 1004.85 1004.78 1004.74 1004.21 1003.82 1003.31 1003.15 1002.61 1002.08 1001.42 1001.12 1001.32 1000.21
1018.53 1018.75 1017.96 1017.45 1016.82 1016.34 1015.79 1014.98 1014.30 1013.89 1013.41 1012.97 1012.84 1012.56 1012.21 1012.09 1011.29 1011.18 1011.10 1010.95 1010.04 1008.86 1009.21 1008.56 1008.84 1008.28 1007.38 1006.35 1005.44 1004.95 1004.54 1004.29 1004.30 1004.32 1004.34 1004.93 1004.45 1004.26 1003.84 1003.31 1002.80 1002.48 1001.33 1001.42 1001.70
1017.87 1018.01 1017.85 1017.37 1016.83 1016.30 1015.62 1015.00 1014.58 1014.35 1013.72 1013.37 1013.18 1012.62 1011.69 1010.94 1010.53 1010.21 1010.15 1010.43 1009.92 1009.87 1009.01 1008.67 1008.67 1008.70 1008.05 1006.77 1005.87 1005.24 1004.54 1004.10 1004.58 1004.95 1004.54 1005.18 1005.50 1004.68 1004.58 1004.47 1004.34 1003.99 1003.39 1003.47 1003.67
Wind_Speed
12 13 14 15 15 15 16 18 18 20 20 20 21 22 23 24 25 4 8 15 11 8 10 5 2 4 3 3 4 5 3 6 8 7 6 6 8 3 6 4 3 5 8 5 14
14 15 15 15 14 15 16 17 17 21 21 21 21 22 22 24 10 10 14 11 15 10 7 10 6 5 3 6 5 6 6 12 7 7 10 4 4 10 6 9 6 4 3 5 17
15 15 16 16 16 16 16 16 17 20 21 21 21 22 21 19 7 8 8 9 9 11 3 6 4 6 4 4 5 7 10 6 7 7 6 5 5 3 5 9 9 8 3 7 6
13 14 15 16 17 17 16 16 19 19 19 20 20 20 21 3 7 3 8 6 4 8 3 2 4 7 5 8 6 4 6 13 6 7 5 13 3 6 6 16 12 11 5 9 11
12 13 15 17 17 17 17 17 19 21 20 18 18 17 7 4 14 7 5 4 4 6 6 6 5 6 8 6 6 7 3 6 8 7 9 12 16 10 15 17 12 11 7 12 14
13 13 14 16 16 17 19 19 20 20 21 20 16 13 3 9 7 5 7 6 4 4 5 8 8 7 5 8 7 5 10 15 10 15 9 13 16 4 8 10 9 8 10 10 15
14 15 15 15 16 17 20 20 23 22 22 19 17 8 11 28 6 9 10 5 3 5 6 5 5 2 2 5 7 6 7 7 7 6 9 5 15 11 10 10 9 10 10 10 16
18 15 15 15 13 16 19 23 24 24 25 20 15 8 12 7 8 13 7 9 10 8 6 7 4 4 4 7 5 4 2 2 5 8 7 9 24 8 9 9 11 10 9 9 7
19 17 16 15 13 16 19 23 29 29 24 15 5 6 14 9 7 12 14 8 6 6 6 3 4 6 3 4 3 3 5 5 4 4 4 8 11 4 4 5 7 8 9 10 11
18 18 17 14 13 17 19 24 28 16 3 8 5 4 9 6 4 3 6 4 3 7 3 6 3 4 1 4 11 7 4 4 6 4 5 10 16 7 8 6 9 9 10 9 10
15 18 20 15 14 14 10 7 6 2 4 8 8 8 6 6 5 2 1 5 2 4 7 6 6 12 9 9 6 4 5 4 0 4 6 8 15 11 8 9 9 8 9 10 11
16 16 18 14 15 13 3 2 7 7 14 14 21 23 26 8 10 12 3 4 4 7 5 1 12 7 9 8 5 6 6 5 5 8 7 14 26 15 7 8 9 9 10 10 9
18 18 12 12 17 7 3 8 10 14 7 9 11 10 11 15 12 21 6 3 5 7 7 8 6 11 12 6 7 7 9 4 11 2 6 7 23 10 5 6 8 8 10 13 12
18 17 11 10 11 3 6 5 12 7 5 9 6 9 8 8 8 12 12 8 5 9 5 7 10 10 8 10 8 12 7 13 7 3 4 4 16 12 4 11 7 13 14 18 12
17 17 14 1 5 4 6 13 14 0 4 2 4 2 8 8 5 2 5 1 10 8 7 8 2 7 12 7 9 6 8 10 9 5 1 4 4 5 4 4 12 13 12 14 16
18 18 7 5 1 6 8 9 3 2 10 5 5 3 4 4 5 6 5 4 4 4 4 6 0 2 6 2 5 2 4 4 1 4 6 6 8 16 6 6 6 7 13 21 13
17 12 4 4 5 4 5 3 3 5 9 8 8 6 2 4 2 2 5 6 6 5 4 1 12 4 4 4 4 4 2 3 3 2 8 10 7 14 9 14 8 8 13 19 15
14 12 6 4 1 3 4 2 3 5 5 9 6 10 7 13 4 4 1 2 2 4 3 2 6 10 7 17 8 9 9 6 6 5 8 7 9 6 1 6 8 13 16 20 20
12 4 5 4 3 3 1 1 3 4 9 11 9 7 7 9 8 9 3 3 5 6 6 3 6 5 6 7 14 6 9 8 8 2 3 5 6 6 3 11 15 19 24 25 25
3 4 4 3 6 4 1 3 2 5 7 6 8 9 9 13 10 11 5 7 11 10 7 3 3 5 3 4 8 14 6 3 2 7 13 3 3 6 7 11 13 17 26 28 24
3 4 4 3 3 4 3 4 5 3 6 5 5 5 6 8 6 6 6 4 14 13 9 2 1 6 6 1 4 4 4 6 5 5 8 9 6 6 4 1 7 11 21 23 22
2 3 3 1 4 1 2 3 5 4 5 5 2 2 3 7 5 4 7 9 13 10 6 6 3 5 12 1 2 2 2 5 5 5 2 4 7 7 2 6 4 3 14 21 20
0 3 4 2 3 4 4 4 3 3 2 4 4 2 3 2 4 4 3 4 13 9 6 7 4 4 2 2 3 4 3 3 1 3 4 5 3 5 6 4 3 6 10 21 24
1 4 4 3 1 2 2 4 3 4 7 4 6 4 4 2 7 4 4 5 11 10 5 3 2 6 6 1 3 2 1 3 3 3 2 4 3 3 8 4 1 3 3 15 18
2 5 4 2 2 2 3 2 4 5 4 6 6 4 4 3 3 3 2 4 10 6 2 3 4 12 9 3 2 3 4 5 3 4 4 4 5 5 7 11 11 10 4 6 16
4 3 2 3 3 3 2 3 4 5 3 3 2 12 8 7 6 7 5 5 6 3 8 5 0 4 3 4 2 2 5 4 6 3 3 4 11 4 6 11 13 12 8 8 8
3 2 3 4 3 2 3 4 3 7 4 2 8 13 8 12 16 10 7 10 9 4 5 1 0 3 3 5 6 1 2 3 7 6 1 1 2 7 5 8 11 11 13 12 11
Wind_Direction
328 324 326 329 329 328 330 330 331 328 327 327 328 329 329 322 320 282 237 220 193 232 151 117 139 172 107 189 161 131 120 202 226 186 231 329 6 310 330 272 321 217 159 235 130
322 322 322 323 325 323 324 326 326 325 325 326 328 329 329 324 309 263 246 225 205 159 164 167 190 156 178 193 194 159 187 207 198 205 260 313 322 310 337 317 300 314 20 53 143
321 319 318 318 318 318 318 319 320 321 322 323 326 329 329 329 294 250 349 222 199 194 255 185 161 165 216 173 211 204 221 200 233 222 252 260 274 254 251 280 244 259 227 150 159
310 310 312 312 312 313 312 312 313 314 316 317 321 326 323 318 275 360 41 60 134 157 222 177 155 168 198 214 231 240 214 216 251 227 255 268 276 256 198 249 254 240 213 168 176
291 299 304 306 307 308 306 306 305 305 309 311 315 325 346 331 252 289 10 48 125 146 197 191 171 175 192 209 214 236 245 249 253 249 247 267 269 256 262 261 263 249 191 193 194
295 291 293 297 302 306 305 302 299 298 302 305 307 319 262 268 264 284 25 337 215 199 203 182 211 209 235 220 200 225 217 247 252 267 257 263 273 211 254 256 273 256 227 214 201
307 297 295 295 300 304 301 298 296 295 297 299 296 291 246 242 281 307 312 266 215 210 216 220 225 263 267 290 237 238 262 264 219 226 254 248 264 238 255 273 272 269 262 208 215
296 302 300 293 293 294 295 297 295 293 291 285 283 258 254 253 250 271 241 272 225 235 232 248 234 218 191 264 303 229 209 205 225 199 242 169 260 274 249 254 274 296 290 287 231
306 300 299 290 296 296 300 302 299 290 283 262 241 228 265 290 246 252 196 216 171 204 216 228 182 197 227 188 309 238 231 205 291 228 243 177 277 262 322 298 281 292 292 290 290
322 310 300 296 294 295 308 313 292 299 118 154 199 240 253 256 261 256 169 233 163 139 175 180 181 193 173 153 220 237 241 238 214 252 235 265 272 266 282 274 273 284 288 278 282
326 325 311 296 285 302 330 347 356 278 227 221 201 246 292 331 331 49 50 162 191 122 171 190 190 213 199 217 234 220 241 212 179 282 325 272 278 282 278 288 281 268 273 279 286
315 312 319 294 293 309 357 229 273 344 290 262 252 245 257 307 298 286 257 216 153 193 160 175 236 214 194 218 208 226 239 247 260 245 259 282 279 284 252 249 243 265 279 273 282
311 312 314 322 318 334 213 265 300 332 266 274 229 233 232 195 229 257 189 198 185 187 190 193 208 187 182 194 211 221 230 169 235 288 259 290 282 270 258 248 261 260 246 271 253
316 306 292 339 314 267 263 310 321 307 282 266 226 247 179 155 248 214 201 164 218 195 189 239 225 242 200 227 194 253 213 243 264 140 249 138 289 268 234 261 285 282 291 287 280
312 316 289 319 280 312 324 332 328 180 289 184 170 146 147 186 297 111 169 134 188 180 152 224 202 210 220 197 180 223 225 210 232 208 269 248 275 35 71 275 268 273 272 280 271
315 309 285 304 284 249 308 313 235 93 244 344 84 18 153 238 311 141 135 151 177 182 275 202 100 163 202 193 193 281 261 272 165 150 258 202 185 280 227 221 265 277 312 304 273
317 309 239 150 241 314 336 277 135 235 323 357 332 324 320 213 229 315 146 180 147 127 237 46 250 219 159 310 308 163 42 309 306 179 239 176 207 245 297 288 277 313 310 334 317
311 298 276 219 222 22 318 3 223 313 345 354 328 313 54 22 5 288 194 197 262 97 63 168 324 177 191 207 182 196 165 190 218 220 257 184 239 245 284 351 343 347 346 335 332
308 320 295 277 176 104 55 190 270 9 359 336 322 41 2 9 356 358 266 242 225 159 167 198 273 288 195 199 176 192 214 196 248 219 259 219 287 317 84 16 2 353 341 330 321
327 333 278 314 143 87 92 232 271 22 329 318 15 28 10 356 9 4 16 29 353 10 337 243 278 264 298 118 227 206 147 191 251 231 248 241 251 247 348 353 360 8 336 321 320
17 355 275 145 109 63 183 264 302 329 353 348 11 347 7 2 349 328 351 47 11 336 332 282 227 281 358 305 196 144 214 207 192 172 248 264 259 199 193 274 3 9 314 311 318
8 350 288 308 58 156 174 254 340 333 30 297 283 199 49 16 344 313 346 347 351 346 344 348 287 208 245 253 310 187 153 159 173 220 202 185 261 183 103 84 93 275 312 319 317
255 279 305 116 256 229 281 281 258 309 334 319 324 234 165 83 352 307 318 332 311 347 11 344 338 308 314 325 51 29 3 345 118 71 215 208 243 316 331 269 148 69 346 320 313
23 310 311 42 164 283 293 268 261 308 285 232 248 282 284 204 185 258 286 317 308 291 233 299 88 288 265 152 116 187 299 1 95 109 236 252 299 291 347 1 222 139 113 297 312
180 245 209 290 216 262 357 295 314 325 293 34 337 250 254 245 302 264 5 302 277 311 305 209 98 272 262 77 244 204 232 220 176 189 155 281 295 6 6 335 307 330 348 293 336
157 179 328 280 277 211 283 310 312 342 264 326 10 313 281 295 272 264 258 264 275 202 179 185 250 256 266 358 3 239 261 252 221 222 268 319 292 340 342 324 342 334 24 93 10
145 274 111 284 322 82 210 282 351 352 315 15 333 310 276 229 237 242 258 225 253 290 310 306 226 349 279 344 315 170 263 251 76 24 56 171 309 338 317 357 12 10 37 40 24